Regional Weather Roundup
Issued by NWS Jackson, KY

Home | Current Version | Previous Version | Graphics & Text | Print | Product List | Glossary On
Versions: 1 2 3 4 5 6 7 8 9 10 11 12 13 14 15 16 17 18 19 20 21 22 23 24 25 26 27 28 29 30 31 32 33 34 35 36 37 38 39 40 41 42 43 44 45 46 47 48 49 50
000
ASUS43 KJKL 101505
RWRJKL

EAST KENTUCKY HOURLY WEATHER ROUNDUP
NATIONAL WEATHER SERVICE JACKSON KY
1100 AM EDT THU JUL 10 2014

NOTE: "FAIR" INDICATES FEW OR NO CLOUDS BELOW 12,000 FEET WITH
NO SIGNIFICANT WEATHER AND/OR OBSTRUCTIONS TO VISIBILITY.

* THESE REPORTS ARE NOT UNDER NWS QUALITY CONTROL AND MAY NOT
  REPORT WEATHER SUCH AS PRECIPITATION AND FOG.

KYZ079-080-083-085-087-088-110-112-115-119-120-101600
...EASTERN KENTUCKY...

CITY           SKY/WX    TMP DP  RH WIND       PRES   REMARKS
JACKSON        MOSUNNY   76  61  59 CALM      30.14R
LONDON         MOSUNNY   78  65  63 CALM      30.13R
SOMERSET*      SUNNY     77  61  57 CALM      30.14R
MONTICELLO*    MOSUNNY   81  66  60 CALM      30.14R
WILLIAMSBURG*  SUNNY     77  68  73 CALM      30.13
MIDDLESBORO*   CLOUDY    74  67  77 CALM      30.14R
HARLAN APT*    PTSUNNY   75  64  69 MISG      30.15R
BLACK MTN*       N/A     66  59  77 SW2         N/A
PIKEVILLE APT* SUNNY     72  64  78 CALM      30.14R
BIG SANDY*     SUNNY     76  65  68 CALM      30.13R
MOREHEAD APT*    N/A     79  63  57 NW5       30.14R
$$

KYZ035-036-041-042-044-050-067-078-099-101600
...CENTRAL KENTUCKY...

CITY           SKY/WX    TMP DP  RH WIND       PRES   REMARKS
MT STERLING*   SUNNY     79  63  57 CALM      30.14R
FLEMING/MASON* MOSUNNY   79  61  54 CALM      30.13R
DANVILLE*      SUNNY     79  61  53 SW3       30.13R
RICHMOND*      SUNNY     81  57  44 CALM      30.12R
LEXINGTON      SUNNY     80  62  54 NW5       30.13R
FRANKFORT      SUNNY     80  62  54 VRB3      30.12R
$$

KYZ091>093-OHZ055-061-077-WVZ005-015-034-035-042-101600
...SOUTHERN OHIO/WEST VIRGINIA...

CITY           SKY/WX    TMP DP  RH WIND       PRES   REMARKS
COVINGTON      MOSUNNY   77  59  53 CALM      30.13R
COLUMBUS       MOSUNNY   79  61  53 W5        30.11R
DAYTON         MOSUNNY   73  60  63 N7        30.16R
WILMINGTON     SUNNY     74  62  66 N6        30.13R
HUNTINGTON     MOSUNNY   80  62  54 CALM      30.10R
CHARLESTON     MOSUNNY   80  68  66 CALM      30.10R
PINEVILLE*     MOSUNNY   80  71  74 MISG      30.20R
BECKLEY        MOSUNNY   75  57  53 SW6       30.18R
BLUEFIELD      PTSUNNY   78  53  41 CALM      30.20R
$$

VAZ002-007-008-TNZ017-027-036-066-071-101600
...SOUTHWEST VIRGINIA/EAST TENNESSEE...

CITY           SKY/WX    TMP DP  RH WIND       PRES   REMARKS
WISE*          PTSUNNY   73  63  68 CALM      30.21R
JONESVILLE*    MOSUNNY   77  68  73 CALM      30.16R
ABINGDON*      PTSUNNY   77  66  70 SE3       30.16S
BRISTOL        MOSUNNY   78  64  61 CALM      30.14R
KNOXVILLE      PTSUNNY   75  69  81 CALM      30.11R
OAK RIDGE      CLOUDY    73  69  87 CALM      30.13R
CROSSVILLE     SUNNY     77  65  66 VRB3      30.16R
NASHVILLE      PTSUNNY   81  64  56 E7        30.11S
$$

...KEY TO REMARKS...
VSB - VISIBILITY IN MILES
WCI - WIND CHILL INDEX
HX  - HEAT INDEX

$$



USA.gov is the U.S. government's official web portal to all federal, state and local government web resources and services.